www.pogodaiklimat.ru

Погода и климат >> Архив погоды >> Таиланд >> Lop Buri


ПОГОДА в Lop Buri

  • Прогноз погоды в Lop Buri
  • Монитор погоды в Lop Buri
  • Климат города

АРХИВ ПОГОДЫ в Lop Buri

Время (UTC), дата Ветер
(напр.,м/с)
 
Видим.   Явления Облачность Т
(С)
Тd
(С)
f
(%)
Тe
(С)
Тes
(С)
Комфортность P
(гПа)
Po
(гПа)
Тmin
(С)
Tmax
(С)
R
(мм)
R24
(мм)
S
(см)
06 23.04 Ю 2 12 км 3/1 600 м
[Cu hum Ci fib]
+36.5 +23.5 47 +47 +65 опасность
перегрева
1008.2 1006.9
09 23.04 Ю 7 13 км 3/1 600 м
[Cu hum Cs]
+37.5 +19.8 36 +43 +45 опасность
перегрева
1005.1 1003.8
12 23.04 штиль 0 10 км 3/1 600 м
[Cu hum Cs]
+34.0 +23.7 55 +45 +45 опасность
перегрева
1005.6 1004.3 +38.0
15 23.04 штиль 0 7000 м мгла 3/1 600 м
[Cu hum Cs]
+31.1 +23.1 63 +42 +42 опасность
перегрева
1008.1 1006.8
18 23.04 ЮВ 2 7000 м дымка 3/0
[Cs]
+29.4 +22.0 64 +38 +38 очень
душно
1007.8 1006.5
21 23.04 ЮВ 2 7000 м дымка 3/0
[Cs]
+28.0 +21.4 67 +35 +35 очень
душно
1007.1 1005.8
00 24.04 штиль 0 8000 м дымка 8/0
[As trans Cs]
+28.0 +22.5 72 +37 +38 очень
душно
1009.8 1008.5 +27.5
03 24.04 Ю 2 9000 м дымка 6/3 600 м
[Cu med, cong As op Cs]
+32.9 +25.8 66 +48 +56 опасность
перегрева
1011.1 1009.8
06 24.04 Ю 2 9000 м мгла 6/4 600 м
[Cu med, cong As op Cs]
+37.0 +22.2 43 +46 +57 опасность
перегрева
1008.4 1007.1
09 24.04 Ю 2 9000 м мгла 5/3 600 м
[Cu med, cong As op Cs]
+37.2 +21.1 39 +44 +49 опасность
перегрева
1005.2 1003.9
12 24.04 Ю 2 8000 м мгла 5/3 600 м
[Cu med, cong As op Cs]
+34.0 +22.4 51 +43 +43 опасность
перегрева
1005.3 1004.0 +38.3
15 24.04 ЮВ 3 8000 м мгла 6/4 600 м
[Cu Sc As op Cs]
+31.3 +22.4 59 +40 +40 очень
душно
1009.0 1007.7
18 24.04 Ю 5 8000 м дымка 3/0
[Cs]
+29.4 +24.2 74 +41 +41 опасность
перегрева
1008.3 1007.0
21 24.04 Ю 1 8000 м дымка 3/0
[Cs]
+28.0 +24.7 82 +40 +40 очень
душно
1007.7 1006.4
00 25.04 Ю 2 8000 м дымка 3/1 600 м
[Sc As op Cs]
+27.8 +24.9 84 +40 +41 очень
душно
1009.8 1008.5 +27.4
03 25.04 ЮЗ 1 9000 м мгла 4/3 600 м
[Sc As op Cs]
+33.0 +24.3 60 +45 +57 опасность
перегрева
1011.1 1009.8
06 25.04 СЗ 3 9000 м мгла 4/0
[Cs]
+37.1 +22.4 43 +46 +62 опасность
перегрева
1007.8 1006.6
09 25.04 ЮЗ 2 9000 м мгла 4/0
[Cs]
+38.0 +21.4 38 +45 +52 опасность
перегрева
1004.8 1003.6
12 25.04 штиль 0 8000 м мгла 3/0
[Cs]
+34.4 +21.1 46 +42 +42 опасность
перегрева
1005.7 1004.4 +38.4
15 25.04 Ю 1 8000 м мгла 3/0
[Cs]
+30.5 +21.1 57 +38 +38 очень
душно
1008.4 1007.1
18 25.04 В 5 7000 м дымка 3/0
[Cs]
+29.4 +22.0 64 +38 +38 очень
душно
1008.1 1006.8
21 25.04 Ю 1 7000 м дымка 3/0
[Cs]
+28.0 +22.5 72 +37 +37 очень
душно
1007.4 1006.0
00 26.04 ЮВ 3 6000 м дымка 8/0
[As op Cs]
+28.1 +24.5 81 +40 +40 очень
душно
1008.6 1007.3 +27.6
03 26.04 ЮВ 3 9000 м дымка 8/3 600 м
[Cu med, cong As trans Cs]
+33.0 +25.9 66 +48 +54 опасность
перегрева
1010.4 1009.2
06 26.04 ЮВ 3 10 км 8/3 600 м
[Cu med, cong As trans Cs]
+36.2 +24.5 51 +49 +57 опасность
перегрева
1008.2 1006.9
09 26.04 Ю 5 10 км 8/4 600 м
[Cu med, cong As trans Cs]
+37.0 +23.1 45 +47 +49 опасность
перегрева
1005.1 1003.8
12 26.04 штиль 0 8000 м дымка {гроза} 10/3 600 м
[Cu med, cong As op Cs]
+31.5 +25.6 71 +46 +46 опасность
перегрева
1006.3 1005.0 +37.5 0.0
15 26.04 штиль 0 7000 м дымка 6/3 600 м
[Cu med, cong Cs]
+30.5 +23.2 65 +41 +41 опасность
перегрева
1009.4 1008.1
18 26.04 ЮВ 5 7000 м дымка 8/3 600 м
[Cu med, cong Ac lent Cs]
+29.5 +23.2 69 +40 +40 очень
душно
1008.8 1007.5
21 26.04 штиль 0 7000 м дымка 5/3 600 м
[Cu med, cong Cs]
+28.9 +23.5 73 +39 +39 очень
душно
1007.6 1006.3
00 27.04 ЮВ 5 8000 м дымка 8/3 600 м
[Cu hum As trans Cs]
+28.9 +24.0 75 +40 +40 очень
душно
1009.4 1008.1 +28.0 0.0
03 27.04 Ю 3 8000 м дымка 8/3 600 м
[Cu hum As op Cs]
+33.1 +25.7 65 +48 +54 опасность
перегрева
1010.7 1009.4
06 27.04 Ю 5 8000 м мгла 6/3 600 м
[Cu med, cong As op Cs]
+36.5 +23.2 46 +46 +53 опасность
перегрева
1008.3 1007.0
09 27.04 В 3 8000 м мгла 8/6 600 м
[Cu Sc Ac As Cs]
+35.3 +23.1 49 +45 +47 опасность
перегрева
1005.0 1003.7
12 27.04 ЮВ 4 8000 м мгла 6/3 600 м
[Sc As op Cs]
+33.2 +23.3 56 +44 +44 опасность
перегрева
1005.9 1004.7 +38.5
15 27.04 Ю 1 8000 м дымка 3/0
[Cs]
+31.5 +25.0 68 +45 +45 опасность
перегрева
1009.8 1008.5
18 27.04 Ю 2 8000 м дымка 3/0
[Cs]
+29.5 +25.2 78 +43 +43 опасность
перегрева
1009.1 1007.8
21 27.04 Ю 2 8000 м дымка 3/0
[Cs]
+28.6 +24.7 79 +41 +41 опасность
перегрева
1007.9 1006.6
00 28.04 Ю 3 8000 м дымка 5/1 600 м
[Sc Ac lent Cs]
+28.5 +24.9 81 +41 +42 опасность
перегрева
1009.4 1008.1 +28.0
03 28.04 Ю 3 8000 м мгла 8/3 600 м
[Sc As op Cs]
+32.9 +24.5 61 +45 +51 опасность
перегрева
1010.5 1009.2
06 28.04 ЮВ 2 9000 м мгла 8/4 600 м
[Cu Sc Ac lent Cs]
+36.4 +24.2 50 +48 +57 опасность
перегрева
1007.7 1006.4
09 28.04 СВ 2 8000 м гроза без осадков 8/5 600 м
[Cb cap Ac As Cs]
+27.0 +21.8 73 +35 +37 очень
душно
1007.0 1005.7 0.2
12 28.04 ЮЗ 2 8000 м слабый ливневой дождь, в посл. час гроза 10/5 600 м
[Cb cap Ac As Cs]
+26.4 +24.2 88 +37 +37 очень
душно
1008.5 1007.2 +36.9 0.4
15 28.04 ЮВ 1 8000 м дымка {дождь} 10/4 600 м
[Sc Ac As Cs]
+27.6 +24.0 81 +38 +38 очень
душно
1011.1 1009.8
18 28.04 С 2 7000 м дымка {дождь} 6/3 600 м
[Sc Ac lent Cs]
+26.4 +24.5 89 +37 +37 очень
душно
1011.6 1010.2 0.6
21 28.04 С 1 7000 м дымка 8/3 600 м
[Sc As op Cs]
+26.0 +23.1 84 +35 +35 очень
душно
1010.8 1009.5
00 29.04 штиль 0 7000 м дымка 9/4 600 м
[Sc As op Cs]
+25.5 +23.3 88 +34 +35 очень
душно
1012.2 1010.9 +25.4 0.6
03 29.04 штиль 0 9000 м дымка 10/3 600 м
[Cu med, cong Ac As Cs]
+28.6 +23.4 73 +39 +46 очень
душно
1013.6 1012.3
06 29.04 штиль 0 10 км 9/5 600 м
[Cu med, cong Ac As Cs]
+33.4 +24.3 59 +46 +54 опасность
перегрева
1011.7 1010.4
09 29.04 штиль 0 10 км 9/5 600 м
[Cu med, cong Ac As Cs]
+34.6 +23.7 53 +46 +49 опасность
перегрева
1008.6 1007.4
12 29.04 штиль 0 8000 м в посл. час гроза 8/3 600 м
[Cu med, cong Ac lent Cs]
+27.0 +24.7 87 +38 +38 очень
душно
1009.5 1008.2 +35.5 8
15 29.04 штиль 0 7000 м дымка 8/3 600 м
[Cu med, cong Ac lent Cs]
+27.4 +25.4 89 +40 +40 очень
душно
1011.0 1009.7
18 29.04 штиль 0 7000 м дымка 3/3 600 м
[Cu med, cong Cs]
+27.1 +24.8 87 +39 +39 очень
душно
1010.4 1009.1
21 29.04 штиль 0 7000 м дымка 3/3 600 м
[Cu med, cong Cs]
+27.0 +24.8 88 +39 +39 очень
душно
1009.9 1008.6
00 30.04 Ю 3 8000 м дымка 5/3 600 м
[Cu hum Cs]
+27.5 +24.8 85 +39 +40 очень
душно
1011.1 1009.7 +26.5 8

 

Местоположение метеостанции Lop Buri (Таиланд): широта 14.80 долгота 100.61 высота над уровнем моря 11 м.

В архиве по умолчанию представлена погода в Lop Buri за последнюю неделю. Архивные данные за месяц целиком и за предыдущие месяцы, начиная с января 2011 года, Вы можете получить, выбрав интересующий диапазон дат из раскрывающегося списка и нажав кнопку "Ввод!".

Внимание! Время в таблицах - всемирное. Для получения местного времени необходимо прибавить поправку, которая в Lop Buri равна 7 ч.

Смотрите также архив погоды в соседних городах и на ближайших метеорологических станциях:

Погода в Ayutthaya (Таиланд) (33 км)
Погода в Laemchabang (Таиланд) (43 км)
Погода в Saraburi (Таиланд) (46 км)
Погода в Chainat Agromet (Таиланд) (60 км)
Погода в Takfa Agromet (Таиланд) (62 км)
Погода в Suphan Buri (Таиланд) (63 км)
Погода в Pathumthani (Таиланд) (78 км)
Погода в Pakchong Agromet (Таиланд) (79 км)
Погода в Bua Chum (Таиланд) (81 км)
Погода в Uthai Thani (Таиланд) (89 км)

Пояснения к столбцам:

Ветер - указаны скорость ветра в м/с - средняя за 10 мин, порывы в срок и между сроками (в фигурных скобках) и направление, откуда дует ветер: С - северный, СВ - северо-восточный, В - восточный, ЮВ - юго-восточный, Ю - южный, ЮЗ - юго-западный, З - западный, СЗ - северо-западный.
Видимость - горизонтальная дальность видимости в метрах или километрах. При видимости от 1 до 10 км при отсутствии осадков обычно наблюдается дымка, при ухудшении видимости до 1 км и менее - туман. В сухую погоду видимость может ухудшаться дымом, пылью или мглою.
Явления - указаны атмосферные явления, наблюдавшиеся в срок или в последний час перед сроком; фигурными скобками обозначены явления, наблюдавшиеся между сроками (за 1-3 часа до срока); квадратными скобками обозначены град или гололедные отложения с указанием их диаметра в мм.
Облачность - указаны через наклонную черту общая и нижняя облачность в баллах и высота нижней границы облаков в метрах; квадратными скобками обозначены формы облаков: Ci - перистые, Cs - перисто-слоистые, Cc - перисто-кучевые, Ac - высококучевые, As - высокослоистые, Sc - слоисто-кучевые, Ns - слоисто-дождевые, Cu - кучевые, Cb - кучево-дождевые. Подробнее классификацию облаков см. в Атласе облаков (PDF).
T - Температура воздуха - температура, измеренная на высоте 2 м над землей.
Td - Температура точки росы - температура, при понижении до которой содержащийся в воздухе водяной пар достигнет насыщения.
f - Относительная влажность воздуха - влажноcть воздуха, измеренная на высоте 2 м над землей.
Te - Эффективная температура - температура, которую ощущает одетый по сезону человек в тени. Характеристика душности погоды. При расчете учитывается влияние влажности воздуха и скорости ветра на теплоощущения человека.
Tes - Эффективная температура на солнце - температура, которую ощущает человек, с поправкой на солнечный нагрев. Характеристика знойности погоды. Зависит от высоты солнца над горизонтом, облачности и скорости ветра. Ночью, в пасмурную погоду, а также при ветре 12 м/с и более поправка равна нулю.
P - Атмосферное давление - приведенное к уровню моря атмосферное давление.
Po - Атмосферное давление - измеренное на уровне метеостанции атмосферное давление.
Tmin - Минимальная температура - минимум температуры воздуха на высоте 2 м над землей.
Tmax - Максимальная температура - максимум температуры воздуха на высоте 2 м над землей.
R - Количество осадков - Количество выпавших осадков за период времени, мм. При наведении курсора мыши на число - период времени, за который выпало указанное количество осадков.
R24 - Количество осадков - Количество выпавших осадков за 24 часа, мм.
S - Снежный покров - Высота снежного покрова, см. При наведении курсора мыши на число - состояние снежного покрова и степень покрытия местности в баллах.